Location: Seattle
(47.6064°N, 122.3308°W)
Time: 00:02:52
(UTC-08:00)

Tiros 1 - Pass Details

Date: 02 December 2020
Orbit: 630 x 663 km, 48.4° (Epoch: 28 January)

Event Time Altitude Azimuth Distance (km) Brightness Sun altitude
Rises 18:17:02 0° 284° (WNW) 2,994 11.7 -19.1°
Reaches altitude 10° 18:19:24 10° 282° (WNW) 2,078 10.7 -19.5°
Maximum altitude 18:24:11 75° 198° (SSW) 683 7.2 -20.3°
Enters shadow 18:25:50 40° 122° (ESE) 961 7.6 -20.5°
Drops below altitude 10° 18:28:56 10° 114° (ESE) 2,055 - -21.1°
Sets 18:31:15 0° 112° (ESE) 2,959 - -21.4°
